Regional Weather Roundup
Issued by NWS Cleveland, OH

Home | Current Version | Previous Version | Text Only | Print | Product List | Glossary Off
Versions: 1 2 3 4 5 6 7 8 9 10 11 12 13 14 15 16 17 18 19 20 21 22 23 24 25 26 27 28 29 30 31 32 33 34 35 36 37 38 39 40 41 42 43 44 45 46 47 48 49 50

516
ASUS41 KCLE 281800
RWRCLE
OHIO REGIONAL WEATHER ROUNDUP
NATIONAL WEATHER SERVICE WILMINGTON, OH
200 PM EDT TUE MAR 28 2017

NOTE: "FAIR" INDICATES FEW OR NO CLOUDS BELOW 12,000 FEET WITH NO
SIGNIFICANT WEATHER AND/OR OBSTRUCTIONS TO VISIBILITY.

OHZ001>008-015>018-024>027-034-035-043-044-281900-
   NORTHWEST OHIO

CITY           SKY/WX    TMP DP  RH WIND       PRES   REMARKS
DEFIANCE       CLOUDY    47  42  83 NE7       30.07R
FINDLAY        CLOUDY    49  41  74 NE9       30.04R
TOLEDO EXPRESS CLOUDY    49  41  74 N9        30.05R
TOLEDO EXEC    CLOUDY    49  41  74 NE7       30.06S
LIMA           CLOUDY    48  45  89 NE8       30.04R
$$

OHZ009>014-019>023-028>033-038-089-281900-
   NORTHEAST OHIO

CITY           SKY/WX    TMP DP  RH WIND       PRES   REMARKS
CLE-HOPKINS    CLOUDY    44  38  79 N9        30.05S
CLE-LAKEFRONT  CLOUDY    41  37  86 W3        30.03R
CUY CO. ARPT   CLOUDY    45  41  87 N12       30.02R
LORAIN-ELYRIA  CLOUDY    42  37  82 N13       30.04R
ASHTABULA      CLOUDY    43  41  93 NW10      30.00R
AKRON-CANTON   CLOUDY    50  46  86 N10       29.97S FOG
WOOSTER        NOT AVBL
MANSFIELD      CLOUDY    45  43  93 N12       30.01R
YOUNGSTOWN     CLOUDY    49  46  90 NW14      29.96R FOG
$$

OHZ042-051>053-060>062-070>072-077>081-281900-
  SOUTHWEST OHIO

CITY           SKY/WX    TMP DP  RH WIND       PRES   REMARKS
CINC-COVINGTON CLOUDY    59  52  77 N15       30.00R
CINC-LUNKEN    CLOUDY    60  54  80 N13       30.00R
HAMILTON       CLOUDY    59  53  80 N10       30.02S
DAYTON         NOT AVBL
WRIGHT-PAT AFB NOT AVBL
DAYTON GENERAL CLOUDY    57  51  80 N12       30.00S
WILMINGTON     CLOUDY    55  52  89 N13       29.99R
$$

OHZ036-037-039>041-045>050-054>059-063>069-073>076-082>088-281900-
  CENTRAL AND SOUTHEAST OHIO

CITY           SKY/WX    TMP DP  RH WIND       PRES   REMARKS
COLUMBUS       CLOUDY    56  50  80 N10       29.98S
OSU AIRPORT    CLOUDY    53  49  86 N12       30.00R
BOLTON FIELD   CLOUDY    55  48  76 N13       30.00R
RICKENBACK AFB NOT AVBL
NEWARK         CLOUDY    56  49  77 N10       29.96S
MARION         CLOUDY    49  44  83 NE14      30.03R
LANCASTER      CLOUDY    59  52  77 N12       29.97R
ZANESVILLE     CLOUDY    57  50  77 NW12      29.96R
NEW PHILLY     CLOUDY    52  50  93 NW13      29.97R
$$




USA.gov is the U.S. government's official web portal to all federal, state and local government web resources and services.